Simultaneous Nadir Overpasses (SNOs) Predictions

Prediction of SNOs between GOES-17 and METOP-B Satellite Orbit:

Table of predicted SNOs for the next 14.0 days since TLE Epoch: 5/17/2019
Index Date Time (GOES-17) GOES-17 Lat,Lon METOP-B Lat,Lon Distance(km) Time Diff (sec)
1 05/18/2019 18:52:50 -0.01,-137.20 0.85,-141.04 437.85 80
2 05/19/2019 18:34:50 -0.01,-137.19 -0.24,-136.04 130.66 80
3 05/21/2019 06:53:52 0.00,-137.15 -0.77,-140.64 398.03 80
4 05/22/2019 06:30:32 -0.00,-137.13 0.33,-135.65 169.73 80
5 05/23/2019 18:49:23 0.01,-137.15 0.71,-140.20 348.66 80
6 05/24/2019 18:31:25 0.01,-137.13 -0.44,-135.21 219.18 80
7 05/26/2019 06:50:25 -0.01,-137.08 -0.62,-139.80 309.99 80
8 05/27/2019 06:27:06 -0.01,-137.07 0.48,-134.81 257.16 80
9 05/28/2019 18:45:58 0.01,-137.07 0.51,-139.37 262.50 80
10 05/29/2019 18:27:59 0.01,-137.05 -0.59,-134.38 304.77 80
11 05/31/2019 06:46:59 -0.01,-137.00 -0.46,-138.97 224.84 80




NCC Satellite Simultaneous Nadir Overpasses (SNOs) Prediction Service
